Weather History for Fairfield, CA

Change the Weather History Date:

Tuesday, April 23, 2013

  Actual Average Record
Temperature  
Mean Temperature 70 °F -  
Max Temperature 85 °F 70 °F 86 °F (2002)
Min Temperature 53 °F 46 °F 38 °F (2007)
Cooling Degree Days 5    
Growing Degree Days 20 (Base 50)    
Moisture  
Dew Point 28 °F    
Average Humidity 25    
Maximum Humidity 82    
Minimum Humidity 12    
Precipitation  
Precipitation 0.03 in - - ()
Sea Level Pressure  
Sea Level Pressure 29.88 in    
Wind  
Wind Speed 20 mph (NNW)    
Max Wind Speed 28 mph    
Max Gust Speed 37 mph    
Visibility 10 miles    
Events      
Averages and records for this station are not official NWS values.
T = Trace of Precipitation, MM = Missing Value Source: NWS Daily Summary

Daily Weather History Graph

Daily Weather History Graph

Search for Another Location

Airport:

Trip Planner

Search our weather history database for the weather conditions in past years. The results will help you decide how hot, cold, wet, or windy it might be!

Date:

Astronomy

Apr. 23, 2013 Rise Set
Actual Time 6:20 AM PDT 7:51 PM PDT
Civil Twilight 5:52 AM PDT 8:19 PM PDT
Nautical Twilight 5:19 AM PDT 8:53 PM PDT
Astronomical Twilight 4:44 AM PDT 9:29 PM PDT
Moon 5:54 PM PDT (4/23) 4:49 AM PDT (4/23)
Length of Visible Light 14h 27m
Length of Day
13h 31m
Waxing Gibbous, 94% of the Moon is Illuminated
Apr 23
Waxing Gibbous
Apr 25
Full
May 2
Last Quarter
May 9
New
May 17
First Quarter

Hourly Weather History & Observations

Time (PDT) Temp. Dew Point Humidity Pressure Visibility Wind Dir Wind Speed Gust Speed Precip Events Conditions
12:58 AM 72.5 °F 22.6 °F 15% 29.87 in 10.0 mi North 27.6 mph 36.8 mph N/A   Clear
1:58 AM 70.5 °F 23.5 °F 17% 29.87 in 10.0 mi North 21.9 mph 36.8 mph 0.01 in   Clear
2:58 AM 68.9 °F 22.5 °F 17% 29.88 in 10.0 mi North 24.2 mph 33.4 mph 0.02 in   Clear
3:58 AM 66.9 °F 21.0 °F 17% 29.87 in 10.0 mi North 21.9 mph 36.8 mph N/A   Clear
4:58 AM 65.7 °F 20.3 °F 18% 29.88 in 10.0 mi North 18.4 mph 32.2 mph N/A   Clear
5:58 AM 64.2 °F 18.9 °F 18% 29.89 in 10.0 mi North 16.1 mph 24.2 mph N/A   Clear
6:58 AM 63.5 °F 19.6 °F 19% 29.91 in 10.0 mi North 17.3 mph 28.8 mph N/A   Clear
7:58 AM 65.7 °F 19.9 °F 17% 29.93 in 10.0 mi North 20.7 mph 29.9 mph N/A   Clear
8:58 AM 69.4 °F 22.3 °F 17% 29.94 in 10.0 mi North 24.2 mph 28.8 mph N/A   Clear
9:58 AM 72.0 °F 20.7 °F 14% 29.93 in 10.0 mi North 24.2 mph 34.5 mph N/A   Clear
10:58 AM 74.7 °F 20.7 °F 13% 29.94 in 10.0 mi North 16.1 mph 26.5 mph N/A   Clear
11:58 AM 76.8 °F 21.7 °F 13% 29.93 in 10.0 mi North 24.2 mph 33.4 mph N/A   Clear
12:58 PM 79.3 °F 22.6 °F 12% 29.92 in 10.0 mi NNE 12.7 mph 17.3 mph N/A   Clear
1:58 PM 80.4 °F 24.6 °F 13% 29.90 in 10.0 mi NNE 11.5 mph - N/A   Clear
2:58 PM 82.8 °F 25.7 °F 12% 29.89 in 10.0 mi Variable 2.3 mph - N/A   Clear
3:58 PM 84.0 °F 26.6 °F 12% 29.86 in 10.0 mi ENE 3.5 mph - N/A   Clear
4:58 PM 82.9 °F 41.4 °F 23% 29.85 in 10.0 mi WSW 16.1 mph - N/A   Clear
5:58 PM 79.2 °F 43.3 °F 28% 29.85 in 10.0 mi WSW 16.1 mph - N/A   Clear
7:58 PM 66.7 °F 41.9 °F 40% 29.84 in 10.0 mi West 15.0 mph - N/A   Clear
8:58 PM 60.6 °F 40.1 °F 47% 29.85 in 10.0 mi WSW 10.4 mph - N/A   Clear
9:58 PM 58.6 °F 40.3 °F 51% 29.85 in 10.0 mi SW 15.0 mph - N/A   Clear
10:58 PM 56.8 °F 44.1 °F 62% 29.85 in 10.0 mi SW 12.7 mph - N/A   Clear
11:58 PM 53.8 °F 48.6 °F 82% 29.85 in 10.0 mi WSW 18.4 mph - N/A   Clear